{"data":{"norad_id":47730,"epoch":"2026-09-19T23:28:55.241760Z","epoch_age_seconds":49172,"freshness":"FRESH","line1":"1 47730U 21017J   26262.97841715 -.00000943  00000+0 -18608-4 0  9996","line2":"2 47730  53.1609  32.7876 0001299  72.6272 287.4871 15.31701233307426","mean_motion":15.31701233,"eccentricity":0.0001299,"inclination_deg":53.1609,"raan_deg":32.7876,"arg_perigee_deg":72.6272,"mean_anomaly_deg":287.4871,"bstar":-1.8608e-5,"rev_number":30742,"period_min":94.013112281669,"perigee_km":469.84665107504,"apogee_km":471.6259883635,"semimajor_km":6848.8733197193,"source":"CELESTRAK","updated_at":"2026-09-20T09:00:38.600020Z"}}